Location: Castelnau
(43.6639°N, 0.8431°W)
Time: 21:47:20
(UTC+00:00)

Okean 3 Rocket - Pass Details

Date: 13 January 2026
Orbit: 610 x 637 km, 82.5° (Epoch: 11 February)

Event Time Altitude Azimuth Distance (km) Brightness Sun altitude
Rises 05:21:23 0° 183° (S) 2,863 7.0 -23.6°
Reaches altitude 10° 05:23:35 10° 182° (S) 1,966 6.2 -23.2°
Maximum altitude 05:27:56 78° 96° (E) 636 3.6 -22.4°
Drops below altitude 10° 05:32:21 10° 11° (N) 1,996 6.2 -21.6°
Sets 05:34:36 0° 10° (N) 2,911 7.0 -21.2°
